Wind_Speed
17 17 19 20 21 21 21 20 20 20 19 15 14 13 13 14 13 17 18 9 4 11 10 7 5 7 6 7 6 3 5 4 6 9 10 7 7 4 4 9 6 5 1 7 24
17 17 19 20 21 21 21 21 19 19 17 14 12 11 11 13 15 16 7 7 10 7 9 8 9 9 8 8 6 8 8 4 1 13 14 9 4 7 6 3 4 6 9 19 27
17 17 19 20 20 21 21 20 18 17 14 12 10 8 9 10 12 1 3 5 13 12 8 7 9 9 8 8 9 7 9 4 8 10 12 15 8 11 8 5 4 9 18 23 22
18 18 18 19 20 20 19 19 16 15 12 10 8 7 8 7 1 3 7 2 9 15 12 9 10 10 8 8 11 7 3 3 13 13 7 23 23 11 13 8 1 9 24 25 23
18 17 18 19 19 19 18 16 15 13 9 8 7 7 6 7 9 4 2 6 3 10 14 12 11 11 11 11 7 10 4 2 10 10 4 14 15 3 4 4 12 19 22 20 17
18 17 17 18 17 18 17 14 13 9 7 7 7 7 5 9 6 4 4 8 3 9 13 14 8 11 4 4 9 6 12 12 5 9 9 13 7 5 5 9 15 20 17 16 15
18 16 17 17 17 16 15 12 11 7 6 7 7 6 9 14 3 5 9 10 6 6 9 13 10 9 2 3 4 10 6 7 7 12 6 10 9 6 4 11 17 17 15 15 14
18 16 16 15 16 15 12 10 8 6 7 7 5 6 9 4 8 8 8 5 3 5 10 6 9 8 5 4 5 5 9 7 6 13 4 10 12 4 5 11 16 16 15 14 11
17 15 15 14 14 12 9 8 5 6 6 6 4 5 8 5 6 5 3 2 4 2 4 3 9 4 5 9 7 6 7 9 7 2 6 8 9 4 4 11 14 14 14 14 10
17 15 14 13 13 9 7 6 3 6 7 5 8 5 6 3 4 5 3 2 3 7 6 4 5 7 7 10 8 7 12 10 11 6 12 9 7 5 6 12 13 12 12 12 11
16 15 13 12 11 7 8 4 3 2 12 8 1 5 4 7 6 5 4 3 2 3 6 7 7 9 14 5 5 3 8 13 8 4 7 5 6 3 5 11 12 13 12 9 8
17 14 13 11 10 9 13 7 5 1 7 17 16 14 14 11 4 4 4 5 4 2 4 6 4 4 5 3 5 6 7 7 6 5 4 10 9 7 9 9 11 11 10 9 8
16 14 13 10 10 12 18 16 5 3 6 5 12 8 5 6 3 6 3 3 2 4 1 8 5 4 5 7 8 5 5 10 7 7 2 8 6 8 5 8 7 7 8 9 10
17 15 13 11 7 13 18 14 5 3 4 7 7 5 7 4 5 2 5 3 2 2 2 4 3 5 7 6 4 6 3 6 11 12 7 6 5 10 9 8 8 10 12 13 14
18 16 14 14 6 12 7 11 4 3 5 10 7 6 7 6 5 3 4 2 6 4 4 4 6 6 5 3 2 4 4 5 5 5 5 9 7 8 9 9 11 13 14 15 14
18 17 16 18 16 13 6 7 5 6 6 8 8 10 10 5 4 3 3 4 4 2 2 6 3 2 4 5 3 12 8 6 3 3 8 3 6 6 5 8 12 16 17 16 15
20 19 19 19 13 13 10 7 5 8 3 8 10 12 12 6 6 5 7 8 7 10 9 7 4 4 3 9 6 6 6 3 5 5 6 3 6 10 4 4 12 18 20 18 18
21 21 21 25 16 12 12 5 10 5 7 3 8 13 12 9 4 4 7 9 4 7 9 9 6 5 1 3 3 3 4 3 4 3 1 2 5 3 3 1 7 17 19 20 20
22 23 25 28 24 10 9 9 11 6 6 10 10 14 8 7 4 7 6 7 3 3 7 6 4 4 2 1 3 4 5 3 2 1 3 3 3 6 3 4 10 16 20 22 21
24 23 22 28 27 8 5 13 9 3 4 10 12 12 13 12 9 9 9 4 4 2 3 4 4 2 4 2 7 4 9 3 3 3 4 4 4 2 7 8 12 17 22 21 18
17 11 16 25 23 11 9 14 7 8 6 10 11 7 10 9 8 10 9 4 4 4 1 5 3 6 3 7 6 5 5 1 1 2 2 2 3 3 4 9 14 18 21 20 18
18 7 17 26 14 15 12 12 5 6 6 4 5 7 12 11 8 10 11 3 5 5 6 2 1 4 7 3 1 3 6 9 4 5 1 2 2 5 3 5 9 15 19 17 17
20 8 21 28 12 11 9 12 5 8 6 8 8 5 6 9 5 5 6 2 4 5 6 6 4 4 5 5 5 7 9 5 3 1 6 3 2 4 4 5 11 14 17 18 17
24 7 9 13 14 16 16 15 9 5 5 4 5 4 7 6 1 7 7 3 3 3 3 4 3 7 9 2 0 6 11 12 11 4 5 10 9 8 9 9 11 15 17 18 18
18 10 16 12 14 13 18 13 14 7 2 8 5 8 8 5 6 5 5 5 3 6 3 3 6 4 1 0 3 4 7 13 15 13 8 10 11 9 9 11 13 16 17 18 18
16 9 15 24 21 14 15 14 17 5 6 8 7 10 7 5 9 10 10 7 5 7 5 2 3 3 4 2 2 6 8 11 15 16 15 18 18 10 8 8 14 18 20 20 20
18 15 24 10 11 13 12 14 12 11 2 1 11 9 6 4 5 7 7 8 6 7 6 4 6 4 2 2 2 6 16 18 13 13 14 14 14 7 7 11 17 20 21 21 20
Wind_Direction
286 291 297 301 309 312 311 312 315 314 308 306 297 295 299 296 289 286 279 283 252 217 225 254 200 190 193 200 204 228 236 194 158 196 115 114 89 64 124 161 114 159 147 162 166
283 290 297 301 307 311 313 314 316 311 305 301 293 295 297 297 297 290 301 235 195 173 186 189 183 180 193 195 202 234 244 175 63 123 130 83 16 8 254 144 152 153 116 144 157
282 288 294 300 306 309 312 312 314 306 301 295 289 293 287 300 317 231 300 203 197 202 200 201 185 186 202 193 196 199 271 120 187 154 161 156 244 203 281 225 242 193 149 150 152
281 286 292 298 305 307 309 309 310 301 298 289 286 279 280 292 222 129 68 124 207 207 200 199 189 193 208 198 199 234 260 206 148 149 147 157 174 218 233 2 279 169 158 156 163
278 283 291 296 303 305 306 307 302 294 295 280 270 263 276 267 255 225 5 16 217 211 207 209 205 208 207 211 184 229 156 189 139 137 175 173 182 228 154 81 118 142 156 156 158
276 281 288 295 300 302 303 305 293 288 284 264 258 258 273 251 240 230 314 346 322 204 205 204 214 211 260 246 213 182 160 193 190 164 138 182 146 190 117 125 124 142 155 157 157
274 279 287 293 298 300 299 295 281 277 261 251 249 264 269 246 253 229 305 318 293 227 212 215 212 192 272 175 138 143 128 153 191 181 168 159 143 100 132 139 138 150 156 158 159
270 278 286 291 295 296 294 282 267 257 245 244 248 280 258 240 245 273 297 313 332 219 211 204 210 231 244 172 115 169 160 167 147 170 167 223 142 78 155 159 153 159 163 162 165
268 275 282 288 291 289 285 261 244 237 227 233 265 260 263 225 251 262 277 240 321 151 186 208 162 177 152 179 164 182 176 139 132 223 152 221 120 48 153 171 160 171 171 170 163
264 271 276 282 283 278 258 236 221 218 224 241 250 267 255 184 261 242 252 137 209 144 121 140 186 199 187 200 195 172 161 164 149 156 188 178 120 119 153 169 173 175 175 174 179
258 267 270 274 271 250 221 165 174 253 230 221 218 268 296 329 241 238 223 192 204 242 224 185 205 207 188 220 67 153 171 166 136 137 149 179 125 88 148 179 179 184 180 176 177
252 259 262 264 253 225 208 218 192 197 267 241 246 265 268 296 275 220 220 244 264 253 196 196 150 97 123 136 132 168 187 137 128 142 221 171 141 134 171 180 193 185 183 175 155
245 250 252 248 237 221 214 202 188 259 260 218 223 245 260 219 235 210 204 200 274 270 280 239 82 116 153 143 138 135 152 160 174 136 94 180 180 169 133 156 159 175 169 160 153
238 240 240 230 224 226 226 191 251 273 257 166 199 228 204 208 209 189 188 218 142 207 144 78 99 158 148 138 272 136 87 138 151 188 194 207 242 173 164 155 171 169 169 153 143
231 230 226 209 186 203 226 198 225 204 233 157 167 172 170 204 138 163 194 194 210 166 248 109 146 157 152 66 299 110 156 133 182 215 217 188 252 115 165 188 176 175 169 163 156
226 224 216 206 207 193 199 175 169 233 226 160 160 171 169 177 151 147 162 110 111 124 138 108 96 20 74 68 185 137 141 122 161 237 243 225 262 266 178 224 175 178 178 173 168
220 220 214 203 205 202 190 153 208 235 146 161 171 177 185 166 160 199 185 172 192 169 166 155 104 110 160 128 149 213 190 219 220 217 251 96 247 275 110 170 187 182 180 179 172
215 213 209 208 193 187 183 194 230 206 193 134 166 175 187 170 167 162 177 182 196 249 174 184 168 177 145 285 192 163 258 236 261 231 274 174 239 97 83 157 187 184 182 175 175
211 209 208 205 198 186 161 206 216 220 181 165 160 176 170 165 203 190 211 185 175 227 208 182 130 127 42 155 291 138 218 37 127 50 272 226 200 188 166 169 174 180 180 182 184
204 203 218 201 192 193 187 224 229 237 165 182 176 200 185 180 187 205 193 156 164 227 285 151 143 174 130 144 61 280 131 179 215 223 234 182 252 151 181 174 178 183 188 187 189
188 188 210 199 183 185 206 215 227 230 223 183 178 165 194 176 206 196 189 148 206 151 209 160 221 153 183 212 193 155 194 210 268 275 268 269 142 103 149 172 187 191 192 191 192
180 201 186 177 183 192 212 214 213 213 207 177 187 164 191 182 178 194 199 244 165 177 185 115 160 183 198 127 288 267 227 208 233 181 208 318 288 165 173 194 194 189 189 191 191
178 169 173 172 193 190 188 216 232 219 188 176 172 178 180 172 176 195 186 102 187 197 169 169 191 180 178 183 184 224 197 205 136 128 207 185 244 169 179 196 201 194 186 184 179
178 165 147 193 210 196 187 201 210 241 157 166 145 137 146 161 130 172 165 142 147 157 138 174 188 240 239 270 272 199 200 201 208 203 217 237 268 189 210 208 200 201 193 184 179
196 186 172 184 198 205 189 188 201 186 197 190 156 192 169 145 162 170 164 146 142 150 147 229 230 212 200 87 242 257 225 204 216 234 221 261 250 276 212 217 209 199 191 183 181
186 171 173 166 179 193 184 202 200 156 185 187 193 167 178 170 197 187 174 191 179 174 179 173 199 186 218 217 280 265 243 234 232 246 251 260 267 273 244 236 193 194 190 190 188
192 175 165 166 175 185 185 186 197 156 100 22 162 144 145 94 79 73 104 102 132 167 165 172 159 164 232 3 272 276 238 225 225 226 239 248 261 166 198 200 200 196 195 194 191
Height
1544 1542 1543 1541 1539 1537 1535 1533 1530 1528 1526 1524 1521 1520 1520 1519 1517 1514 1512 1514 1513 1514 1516 1517 1517 1519 1520 1519 1520 1518 1510 1508 1507 1506 1519 1521 1522 1521 1526 1527 1525 1530 1532 1534 1537
1540 1539 1540 1538 1536 1535 1531 1530 1527 1525 1524 1522 1520 1519 1518 1516 1514 1511 1510 1509 1511 1513 1514 1516 1517 1517 1517 1517 1517 1513 1505 1502 1504 1508 1518 1522 1526 1522 1527 1526 1526 1529 1531 1534 1537
1537 1536 1536 1536 1533 1531 1529 1527 1525 1523 1521 1520 1518 1518 1517 1515 1512 1510 1509 1508 1509 1511 1514 1515 1515 1516 1514 1514 1513 1510 1504 1504 1508 1511 1513 1520 1525 1528 1524 1518 1521 1525 1530 1536 1541
1534 1533 1532 1532 1530 1528 1526 1525 1522 1520 1518 1518 1517 1516 1515 1516 1510 1509 1508 1507 1508 1509 1512 1515 1514 1514 1511 1510 1510 1509 1508 1506 1509 1513 1517 1519 1522 1524 1522 1521 1523 1527 1532 1537 1542
1531 1529 1529 1529 1527 1525 1524 1521 1520 1518 1516 1516 1516 1515 1516 1516 1509 1508 1508 1507 1507 1508 1511 1512 1513 1511 1509 1508 1510 1509 1511 1508 1509 1516 1517 1517 1520 1519 1521 1524 1525 1529 1537 1540 1543
1528 1527 1525 1526 1524 1522 1520 1518 1518 1516 1515 1515 1515 1514 1515 1514 1507 1507 1507 1506 1506 1507 1508 1510 1511 1511 1509 1507 1507 1507 1511 1510 1513 1515 1518 1519 1521 1520 1525 1527 1529 1534 1539 1542 1545
1525 1523 1523 1522 1521 1519 1517 1516 1516 1514 1514 1515 1514 1514 1513 1508 1506 1506 1505 1505 1505 1506 1507 1509 1510 1511 1508 1508 1509 1510 1512 1514 1514 1514 1516 1517 1520 1521 1527 1530 1533 1537 1540 1543 1546
1521 1520 1521 1519 1518 1517 1514 1514 1514 1513 1513 1514 1513 1514 1509 1505 1505 1504 1504 1504 1503 1504 1505 1507 1508 1510 1511 1510 1509 1508 1508 1511 1512 1514 1517 1515 1518 1527 1528 1530 1534 1538 1541 1544 1548
1518 1517 1517 1516 1515 1514 1513 1513 1512 1512 1513 1514 1514 1514 1508 1504 1504 1503 1503 1504 1503 1503 1504 1505 1506 1508 1509 1506 1509 1508 1510 1507 1514 1514 1514 1515 1517 1527 1530 1530 1534 1539 1542 1545 1547
1514 1514 1513 1513 1513 1512 1512 1513 1511 1512 1514 1514 1513 1516 1504 1503 1501 1502 1502 1503 1503 1503 1505 1506 1506 1503 1503 1502 1507 1505 1507 1509 1511 1515 1512 1515 1523 1529 1530 1532 1536 1539 1542 1544 1547
1510 1511 1511 1510 1511 1510 1512 1513 1516 1516 1512 1508 1508 1505 1503 1502 1500 1501 1501 1503 1502 1502 1500 1502 1500 1502 1496 1498 1496 1498 1500 1505 1506 1512 1511 1514 1520 1525 1530 1533 1536 1539 1541 1543 1546
1507 1507 1508 1507 1508 1508 1511 1511 1509 1511 1508 1505 1505 1504 1502 1502 1501 1500 1501 1501 1499 1498 1500 1500 1499 1502 1502 1501 1500 1502 1503 1506 1513 1516 1513 1517 1523 1529 1531 1532 1534 1537 1539 1542 1544
1503 1504 1505 1504 1505 1507 1509 1509 1509 1509 1508 1502 1501 1502 1502 1501 1500 1499 1501 1501 1499 1499 1498 1492 1502 1504 1501 1502 1503 1505 1503 1508 1506 1513 1514 1514 1519 1524 1531 1533 1535 1537 1538 1541 1543
1499 1501 1502 1503 1506 1506 1506 1508 1509 1509 1502 1498 1498 1498 1499 1500 1499 1499 1499 1501 1500 1499 1499 1500 1504 1503 1501 1504 1502 1504 1507 1506 1510 1509 1510 1514 1510 1512 1523 1528 1532 1536 1539 1540 1543
1495 1498 1499 1501 1501 1505 1508 1508 1509 1511 1509 1492 1494 1495 1496 1498 1497 1498 1498 1500 1498 1500 1503 1505 1503 1504 1502 1506 1506 1510 1509 1507 1509 1507 1508 1511 1513 1506 1519 1524 1529 1534 1537 1540 1542
1492 1494 1496 1498 1500 1503 1505 1507 1510 1511 1503 1490 1489 1491 1494 1496 1497 1498 1499 1500 1502 1501 1500 1503 1506 1505 1506 1510 1507 1511 1510 1510 1509 1509 1517 1505 1513 1496 1506 1512 1523 1531 1535 1538 1541
1488 1490 1493 1496 1500 1500 1503 1507 1507 1502 1487 1488 1487 1488 1489 1494 1496 1496 1496 1498 1497 1505 1505 1503 1506 1508 1509 1509 1512 1509 1508 1517 1524 1521 1519 1517 1517 1500 1510 1516 1519 1526 1531 1536 1540
1483 1486 1488 1492 1497 1498 1502 1504 1503 1485 1482 1482 1483 1486 1490 1492 1495 1497 1497 1498 1500 1497 1498 1502 1514 1507 1510 1506 1503 1506 1507 1517 1531 1524 1515 1519 1513 1503 1513 1517 1519 1524 1530 1535 1539
1479 1481 1483 1487 1493 1496 1500 1499 1488 1482 1477 1479 1483 1487 1490 1491 1492 1495 1495 1493 1497 1496 1496 1502 1507 1509 1510 1508 1508 1511 1512 1514 1522 1532 1527 1505 1506 1508 1514 1516 1520 1523 1528 1533 1537
1474 1478 1479 1484 1490 1495 1495 1491 1482 1481 1479 1477 1481 1481 1488 1489 1492 1492 1494 1496 1497 1498 1498 1498 1509 1507 1510 1509 1511 1508 1511 1519 1518 1534 1526 1505 1508 1498 1511 1513 1517 1521 1525 1530 1535
1473 1477 1475 1481 1486 1492 1486 1483 1481 1480 1479 1476 1476 1483 1482 1488 1487 1489 1491 1497 1497 1498 1497 1495 1498 1511 1510 1507 1504 1514 1512 1515 1512 1519 1520 1519 1500 1501 1504 1508 1513 1517 1523 1527 1533
1467 1468 1469 1477 1483 1478 1479 1479 1479 1478 1477 1475 1475 1477 1481 1484 1488 1488 1490 1490 1497 1496 1494 1499 1498 1507 1505 1508 1509 1506 1505 1507 1514 1519 1523 1521 1505 1506 1508 1510 1512 1514 1520 1526 1531
1458 1463 1467 1472 1467 1473 1474 1477 1476 1475 1472 1473 1474 1475 1480 1482 1489 1489 1490 1497 1497 1496 1495 1498 1501 1509 1510 1509 1509 1507 1506 1507 1513 1515 1517 1525 1503 1506 1508 1510 1512 1514 1520 1525 1528
1453 1453 1462 1469 1465 1465 1467 1469 1472 1473 1470 1472 1473 1476 1479 1482 1486 1489 1491 1497 1498 1498 1499 1499 1498 1496 1500 1494 1495 1504 1504 1505 1504 1515 1505 1504 1494 1503 1505 1506 1510 1513 1518 1521 1524
1442 1437 1442 1454 1460 1462 1463 1463 1467 1468 1469 1470 1471 1469 1473 1483 1485 1488 1490 1496 1499 1499 1500 1498 1498 1500 1504 1505 1505 1501 1501 1503 1503 1498 1506 1492 1494 1489 1496 1501 1505 1510 1515 1518 1521
1434 1433 1440 1446 1455 1459 1460 1461 1462 1465 1465 1465 1464 1469 1472 1474 1474 1481 1483 1488 1488 1498 1497 1500 1500 1504 1507 1509 1509 1507 1501 1499 1498 1495 1495 1491 1492 1490 1496 1499 1503 1507 1511 1514 1517
1427 1429 1434 1448 1451 1454 1454 1457 1460 1460 1468 1467 1464 1468 1473 1477 1479 1480 1485 1486 1487 1490 1495 1497 1501 1505 1505 1513 1511 1515 1495 1491 1490 1490 1490 1492 1486 1492 1496 1497 1500 1503 1507 1510 1514